sat.trackr.live / text

‹ back to catalog

STARLINK-5678

NORAD 55460 · 2023-015M

PAYLOAD ACTIVE UNKNOWN

§ Identity

Operator
Country
US
Launch date
2023-02-02
Launch site
AFETR
Launch vehicle
Mass (kg)
RCS (m²)

Purposes: comms

External: N2YO · Heavens-Above · Gunter

§ Orbital elements

Epoch: 2026-09-19T01:20:41.342784Z

Period
94.27 min
Inclination
43.0034°
Eccentricity
0.0001263
Mean motion
15.27579780 rev/d
Perigee alt
482.2 km
Apogee alt
483.9 km
Semi-major
6,861.2 km
B*
2.2670e-5
RAAN
316.8021°
Arg perigee
269.4396°
Mean anomaly
90.6311°
Rev number
20,029

§ Raw data

STARLINK-56781 55460U 23015M   26262.05603406  .00000362  00000+0  22670-4 0  99942 55460  43.0034 316.8021 0001263 269.4396  90.6311 15.27579780200292

JSON: /api/v1/satellites/55460 · /tle

For live sub-satellite position, see the globe view (requires WebGL).

§ Visibility from observer

Set your observer location to see the next 7 days of passes ≥ 10°. The values pass through the URL so the page stays shareable.

No JS? Fill the form by hand. The geolocation button needs JavaScript.